Home   Weather   Celje   Past weeks

Flag for Slovenia Past Weather in Celje, Slovenia — Yesterday and Last 2 Weeks

Now
67 °F

Mild.


Feels Like: 67 °F
Forecast: 60 / 81 °F
Wind: 1 mph from South

Location: Celje

Current Time: Aug 19, 2017 at 12:00:30 am

Latest Report: Aug 18, 2017 at 11:00 pm


Visibility: N/A

Pressure: 29.96 "Hg

Humidity: 79%

Dew Point: 60 °F

Location of CeljeLocation

Past Weather in Celje — Graph

°F

Celje Temperature Yesterday

Maximum temperature yesterday: 90 °F (at 4:00 pm)
Minimum temperature yesterday: 59 °F (at 6:00 am)
Average temperature yesterday: 75 °F

High & Low Weather Summary for the Past Weeks

 TemperatureHumidityPressure
High99 °F (Aug 4, 4:00 pm)98% (Aug 9, 7:00 am)30.21 "Hg (Aug 9, 7:00 am)
Low52 °F (Aug 13, 6:00 am)32% (Aug 4, 4:00 pm)29.76 "Hg (Aug 4, 6:00 pm)
Average72 °F74%30.02 "Hg
* Reported Aug 3 10:00 pm — Aug 18 10:00 pm, Celje. Weather by CustomWeather, © 2017

Note: Actual official high and low records may vary slightly from our data, if they occured in-between our weather recording intervals... More about our weather records

Advertising

Celje Weather History for the Previous 24 Hours

Scroll right to see more
 ConditionsComfort  
Time TempWeatherWind HumidityBarometerVisibility
10:00 pm
Fri, Aug 18
69 °FMild.1 mph74%29.94 "HgN/A
9:00 pm77 °FMild.1 mph55%29.93 "HgN/A
8:00 pm84 °FPleasantly warm.3 mph39%29.92 "HgN/A
7:00 pm86 °FWarm.2 mph42%29.92 "HgN/A
6:00 pm89 °FHot.3 mph39%29.93 "HgN/A
5:00 pm89 °FHot.3 mph36%29.94 "HgN/A
4:00 pm90 °FHot.3 mph38%29.96 "HgN/A
3:00 pm89 °FHot.2 mph37%29.98 "HgN/A
2:00 pm89 °FHot.2 mph38%30.01 "HgN/A
1:00 pm87 °FPleasantly warm.2 mph38%30.03 "HgN/A
12:00 pm85 °FWarm.2 mph50%30.04 "HgN/A
11:00 am81 °FWarm.1 mph53%30.07 "HgN/A
10:00 am77 °FWarm.1 mph67%30.08 "HgN/A
9:00 am72 °FMild.1 mph76%30.10 "HgN/A
8:00 am65 °FOvercast.No wind87%30.11 "Hg31 mi
7:00 am60 °FCool.No wind96%30.11 "HgN/A
6:00 am59 °FCool.1 mph95%30.11 "HgN/A
5:00 am59 °FCool.No wind95%30.09 "HgN/A
4:00 am60 °FCool.No wind93%30.09 "HgN/A
3:00 am61 °FCool.1 mph94%30.10 "HgN/A
2:00 am62 °FCool.1 mph92%30.10 "HgN/A
1:00 am62 °FMild.1 mph92%30.11 "HgN/A
12:00 am64 °FMild.1 mph89%30.10 "HgN/A
Weather by CustomWeather, © 2017

See weather overviewHow to use our weather pages